TimeEST,TemperatureF,Dew PointF,Humidity,Sea Level PressureIn,VisibilityMPH,Wind Direction,Wind SpeedMPH,Gust SpeedMPH,PrecipitationIn,Events,Conditions,WindDirDegrees,DateUTC
12:53 AM,45.0,19.9,37,29.89,10.0,SSW,11.5,18.4,N/A,,Clear,210,2013-01-20 05:53:00
1:53 AM,44.1,19.9,38,29.89,10.0,SSW,5.8,-,N/A,,Clear,200,2013-01-20 06:53:00
2:53 AM,43.0,19.9,40,29.87,10.0,South,8.1,-,N/A,,Clear,190,2013-01-20 07:53:00
3:53 AM,36.0,21.0,55,29.86,10.0,Calm,Calm,-,N/A,,Clear,0,2013-01-20 08:53:00
4:53 AM,32.0,21.9,66,29.84,10.0,Calm,Calm,-,N/A,,Clear,0,2013-01-20 09:53:00
5:53 AM,37.0,23.0,57,29.82,10.0,SSW,8.1,-,N/A,,Clear,200,2013-01-20 10:53:00
7:53 AM,42.1,25.0,51,29.84,10.0,SSW,4.6,-,N/A,,Clear,210,2013-01-20 12:53:00
8:53 AM,50.0,28.9,44,29.86,10.0,WSW,10.4,27.6,N/A,,Scattered Clouds,250,2013-01-20 13:53:00
9:53 AM,52.0,27.0,38,29.87,10.0,West,20.7,31.1,N/A,,Partly Cloudy,260,2013-01-20 14:53:00
10:53 AM,53.1,26.1,35,29.87,10.0,West,28.8,36.8,N/A,,Clear,260,2013-01-20 15:53:00
11:53 AM,53.1,23.0,31,29.87,10.0,West,24.2,33.4,N/A,,Clear,280,2013-01-20 16:53:00
1:53 PM,53.1,15.1,22,29.88,10.0,WNW,24.2,33.4,N/A,,Clear,290,2013-01-20 18:53:00
2:53 PM,51.1,10.0,19,29.92,10.0,WNW,19.6,25.3,N/A,,Clear,300,2013-01-20 19:53:00
3:53 PM,48.0,8.1,20,29.96,10.0,WNW,15.0,23.0,N/A,,Clear,300,2013-01-20 20:53:00
4:53 PM,45.0,8.1,22,29.99,10.0,NW,13.8,19.6,N/A,,Clear,310,2013-01-20 21:53:00
5:53 PM,42.1,7.0,24,30.02,10.0,WNW,10.4,-,N/A,,Clear,290,2013-01-20 22:53:00
6:53 PM,41.0,7.0,25,30.04,10.0,WNW,10.4,-,N/A,,Clear,290,2013-01-20 23:53:00
7:53 PM,39.0,9.0,29,30.06,10.0,WNW,9.2,-,N/A,,Clear,300,2013-01-21 00:53:00
8:53 PM,37.9,8.1,29,30.07,10.0,WNW,13.8,-,N/A,,Clear,290,2013-01-21 01:53:00
9:53 PM,36.0,9.0,33,30.08,10.0,WNW,6.9,-,N/A,,Clear,300,2013-01-21 02:53:00
10:53 PM,33.1,12.0,42,30.08,10.0,North,8.1,-,N/A,,Clear,360,2013-01-21 03:53:00
11:53 PM,30.0,12.9,49,30.10,10.0,East,3.5,-,N/A,,Clear,90,2013-01-21 04:53:00